[[{"header":{"parameterUnit":"m.s-1","parameterCategory":1,"la1":30.2991,"la2":30.254,"lo1":-89.0895,"lo2":-89.0444,"dy":0.0017,"dx":0.0017,"nx":28,"ny":28,"refTime":"2023-08-10T09:00:00:Z","depth":0,"parameterNumber":2,"parameterNumberName":"U-component_of_WINDS"},"data":[0,0,0,0,0,0,0,0,0,0,0,0,0,0,0,0,0,0,0,0,0,0,0,0,0,0,0,0,0,0,0,0,0,0,0,0,0,0,0,0,0,0,0,0,0,0,0,0,0,0,0,0,0,0,0,0,0,0,5.0155,5.0156,0,5.0235,5.0236,5.0236,5.0171,5.0168,5.0165,5.0163,5.0242,5.0246,5.0251,0,0,0,0,0,0,0,0,0,0,0,0,0,4.9942,4.9946,5.0155,5.0156,5.0157,5.0234,5.0236,5.0237,5.0171,5.0168,5.0165,5.0161,5.024,5.0246,5.0251,0,0,0,0,0,0,0,0,0,0,0,0,0,5.0029,4.9948,5.0155,5.0134,5.0133,5.0234,5.0236,5.0237,5.0172,5.0168,5.0164,5.016,5.0238,5.0245,5.0252,5.0378,0,0,5.0274,5.0277,0,0,0,0,0,0,0,0,5.0024,5.0037,5.0136,5.0136,5.0134,5.0189,5.0189,5.0284,5.0173,5.0157,5.0163,5.0158,5.0227,5.0235,5.0259,5.0382,5.0385,5.0274,5.0278,5.0281,5.0283,0,0,0,0,0,0,0,5.0019,5.0033,5.0186,5.0137,5.0137,5.0119,5.0127,5.0207,5.0214,5.0158,5.0154,5.0164,5.0226,5.0252,5.026,5.0386,5.0274,5.028,5.0285,5.0287,5.061,5.0614,0,0,0,0,0,0,5.0015,5.0029,5.0184,5.0189,5.0068,5.0126,5.0135,5.0175,5.0213,5.0215,5.0167,5.0161,5.0242,5.0252,5.0263,5.0408,5.0281,5.0288,5.0292,5.0606,5.0611,5.0616,0,0,0,0,0,0,5.0011,5.003,5.0181,5.0108,5.0126,5.0134,5.018,5.0179,5.0205,5.022,5.0221,5.0193,5.0239,5.0253,5.0349,5.041,5.0291,5.0298,5.0601,5.0608,5.0614,5.0702,0,0,0,0,0,0,5.0005,5.0028,5.0078,5.0109,5.013,5.0267,5.0184,5.0184,5.0218,5.021,5.0245,5.0246,5.0237,5.0339,5.0356,5.0417,5.0303,5.0595,5.0604,5.0612,5.0694,5.0711,5.0726,0,0,0,0,0,4.9998,5.01,5.0081,5.01,5.0192,5.0271,5.0282,5.027,5.0223,5.0271,5.028,5.0245,5.0401,5.0349,5.0368,5.0433,5.0591,5.0601,5.0611,5.0687,5.0708,5.0726,0,0,0,0,0,0,5.0076,5.0104,5.0083,5.0199,5.0233,5.026,5.032,5.0294,5.0342,5.0332,5.0315,5.0323,5.0423,5.0438,5.0379,5.0553,5.0488,5.0502,5.054,5.056,5.0575,5.0568,5.0309,0,0,0,0,0,5.0107,5.017,5.0191,5.0291,5.0309,5.0312,5.0346,5.0334,5.0368,5.0382,5.0398,5.0432,5.0488,5.0525,5.0578,5.0697,5.0701,5.075,5.0766,5.0779,5.079,5.0849,5.087,5.0648,5.0648,5.0648,0,0,5.0171,5.0194,5.0235,5.0307,5.0332,5.0395,5.0325,5.0396,5.0442,5.0393,5.0483,5.0496,5.0532,5.0638,5.0686,5.0654,5.0853,5.0792,5.0802,5.0806,5.0861,5.0882,5.0901,5.0655,5.0654,5.0653,0,0,5.0319,5.0345,5.0429,5.0455,5.0493,5.0494,5.0514,5.0545,5.0551,5.0642,5.0604,5.0658,5.0757,5.0782,5.0809,5.0963,5.0931,5.0981,5.1063,5.1121,5.1138,5.1153,5.1204,5.1223,5.0993,5.0993,5.0994,0,5.0394,5.0489,5.0476,5.0548,5.0579,5.0538,5.062,5.0646,5.07,5.0721,5.0685,5.0804,5.0826,5.0935,5.0973,5.0997,5.1016,5.0976,5.1137,5.1152,5.1166,5.1214,5.1234,5.0999,5.0998,5.0998,5.0997,0,5.0576,5.0642,5.0705,5.0757,5.0795,5.0873,5.0869,5.091,5.0894,5.0897,5.0987,5.1012,5.1067,5.1093,5.1079,5.1199,5.1177,5.114,5.1073,5.1193,5.1237,5.1256,5.1007,5.1005,5.1003,5.1002,0,0,5.0775,5.0817,5.084,5.086,5.0899,5.0948,5.1023,5.1076,5.1109,5.1148,5.1206,5.1289,5.1253,5.1283,5.1271,5.1322,5.1437,5.1277,5.1278,5.1302,5.1565,5.159,5.1612,5.1417,5.1421,5.1424,5.1561,0,5.0921,5.1051,5.1039,5.1161,5.1219,5.118,5.1244,5.1273,5.1278,5.1327,5.1332,5.1389,5.134,5.1357,5.1406,5.1413,5.1489,5.1403,5.1468,5.1471,5.1456,5.1636,5.1663,5.1792,5.1578,5.1581,5.1584,0,5.1109,5.1152,5.1279,5.1304,5.1328,5.1386,5.1432,5.1481,5.1511,5.1511,5.1543,5.1521,5.1593,5.1527,5.1624,5.1565,5.1592,5.1599,5.1603,5.1606,5.1532,5.1639,5.1833,5.185,5.1612,5.161,5.1608,0,5.1235,5.1326,5.1412,5.1432,5.1465,5.1505,5.1521,5.1547,5.1579,5.1619,5.1638,5.1687,5.1712,5.1749,5.174,5.1694,5.1836,5.1771,5.1835,5.1835,5.1864,5.1862,5.206,5.1889,5.1888,5.1888,5.1888,0,5.1397,5.1475,5.1468,5.1521,5.1606,5.1592,5.1676,5.1686,5.171,5.1762,5.1732,5.1781,5.1768,5.1816,5.181,5.1887,5.1901,5.19,5.1896,5.19,5.19,5.1914,5.1903,5.1893,5.1892,5.1891,5.189,0,5.1552,5.1551,5.1641,5.1664,5.1672,5.1733,5.1751,5.1799,5.1802,5.1868,5.1882,5.1885,5.194,5.1935,5.1998,5.1993,5.2088,5.2076,5.2077,5.2073,5.2135,5.2127,5.2347,5.2372,5.2188,5.219,5.2191,0,5.1653,5.1712,5.174,5.1773,5.179,5.1844,5.1875,5.1863,5.1896,5.1934,5.1977,5.2029,5.2069,5.2158,5.2164,5.221,5.2197,5.227,5.2203,5.2204,5.2192,5.2187,5.219,5.2282,5.2284,5.2286,5.2288,0,5.1831,5.1827,5.1873,5.1919,5.1957,5.1992,5.2025,5.2053,5.2043,5.2082,5.2137,5.2168,5.223,5.228,5.2324,5.2337,5.231,5.2309,5.2325,5.2327,5.2323,5.2321,5.2108,5.2303,5.2302,5.23,5.23,5.2299,5.1959,5.2007,5.2033,5.2085,5.2108,5.2138,5.2182,5.219,5.2236,5.2284,5.2275,5.2335,5.2361,5.2416,5.2434,5.248,5.2453,5.2478,5.2483,5.2488,5.2493,5.232,5.2488,5.2488,5.2488,5.2487,5.2487,0,5.2131,5.2145,5.2193,5.2238,5.2277,5.2249,5.2283,5.2317,5.2371,5.2398,5.2437,5.2498,5.2546,5.2556,5.2601,5.2636,5.2624,5.2648,5.2643,5.2645,5.2517,5.2496,5.2656,5.2656,5.2656,5.2656,5.2656,5.2656,5.2225,5.2303,5.2302,5.239,5.2404,5.2463,5.2483,5.251,5.253,5.26,5.2639,5.2646,5.2664,5.271,5.2752,5.2753,5.2769,5.2797,5.2793,5.2672,5.2655,5.2639,5.2619,5.2802,5.2802,5.2916,5.2917,5.2918]},{"header":{"parameterUnit":"m.s-1","parameterCategory":1,"la1":30.2991,"la2":30.254,"lo1":-89.0895,"lo2":-89.0444,"dy":0.0017,"dx":0.0017,"nx":28,"ny":28,"refTime":"2023-08-10T09:00:00:Z","depth":0,"parameterNumber":3,"parameterNumberName":"V-component_of_WINDS"},"data":[0,0,0,0,0,0,0,0,0,0,0,0,0,0,0,0,0,0,0,0,0,0,0,0,0,0,0,0,0,0,0,0,0,0,0,0,0,0,0,0,0,0,0,0,0,0,0,0,0,0,0,0,0,0,0,0,0,0,4.4283,4.4284,0,4.4366,4.4367,4.4368,4.4355,4.4354,4.4352,4.4351,4.4431,4.4435,4.4438,0,0,0,0,0,0,0,0,0,0,0,0,0,4.4105,4.4108,4.4283,4.4284,4.4285,4.4366,4.4367,4.4369,4.4355,4.4354,4.4352,4.435,4.443,4.4434,4.4438,0,0,0,0,0,0,0,0,0,0,0,0,0,4.4184,4.4109,4.4282,4.4288,4.4289,4.4366,4.4367,4.4369,4.4356,4.4353,4.4351,4.4349,4.4429,4.4434,4.4439,4.4513,0,0,4.4455,4.4457,0,0,0,0,0,0,0,0,4.418,4.4191,4.4286,4.4288,4.429,4.4348,4.4334,4.4417,4.4356,4.433,4.4351,4.4348,4.4405,4.4412,4.4432,4.4517,4.4521,4.4455,4.4458,4.4461,4.4462,0,0,0,0,0,0,0,4.4174,4.4187,4.4316,4.4288,4.429,4.4284,4.4293,4.435,4.4378,4.4332,4.4332,4.4342,4.4405,4.4427,4.4434,4.4522,4.4455,4.446,4.4463,4.4465,4.4669,4.4671,0,0,0,0,0,0,4.4168,4.4183,4.4313,4.4318,4.4229,4.4289,4.4299,4.4331,4.4378,4.4383,4.4344,4.4341,4.4419,4.4428,4.4437,4.4525,4.446,4.4465,4.4468,4.4667,4.467,4.4672,0,0,0,0,0,0,4.4164,4.418,4.431,4.425,4.4266,4.4295,4.4331,4.4334,4.4356,4.4386,4.4391,4.4361,4.4418,4.4429,4.4494,4.4528,4.4468,4.4472,4.4664,4.4668,4.4671,4.4704,0,0,0,0,0,0,4.4159,4.4179,4.4209,4.4251,4.427,4.4368,4.4333,4.4337,4.4366,4.4363,4.4404,4.4409,4.4417,4.4486,4.4499,4.4534,4.4476,4.4661,4.4666,4.467,4.47,4.4708,4.4715,0,0,0,0,0,4.4153,4.4214,4.4211,4.4226,4.4309,4.437,4.438,4.439,4.4369,4.4398,4.4417,4.4407,4.4522,4.4493,4.4508,4.4544,4.4659,4.4664,4.4669,4.4697,4.4706,4.4715,0,0,0,0,0,0,4.4174,4.422,4.4216,4.4294,4.4328,4.4368,4.4405,4.4401,4.4441,4.4437,4.4446,4.4455,4.452,4.4539,4.4506,4.4617,4.4587,4.4596,4.4603,4.4613,4.462,4.4614,4.4481,0,0,0,0,0,4.4188,4.4236,4.4273,4.4337,4.4355,4.4377,4.4404,4.4409,4.4444,4.4458,4.4482,4.4515,4.4558,4.4587,4.4628,4.4703,4.471,4.4735,4.4742,4.4748,4.4755,4.4793,4.4804,4.4689,4.4689,4.4689,0,0,4.4217,4.4248,4.4277,4.4342,4.437,4.4416,4.4389,4.4441,4.4475,4.4466,4.4528,4.4547,4.4584,4.4653,4.4685,4.467,4.4788,4.4755,4.476,4.4763,4.4799,4.481,4.482,4.4693,4.4692,4.4692,0,0,4.4293,4.4322,4.4378,4.4406,4.4448,4.4462,4.4475,4.4515,4.4528,4.4591,4.4584,4.4624,4.4699,4.4725,4.4748,4.4832,4.4824,4.4845,4.4884,4.4921,4.493,4.4938,4.4966,4.4976,4.4852,4.4852,4.4852,0,4.4322,4.4395,4.4407,4.4459,4.4486,4.4481,4.4536,4.4562,4.4615,4.4633,4.4617,4.4709,4.4734,4.4808,4.4829,4.4848,4.4861,4.484,4.4929,4.4937,4.4944,4.4971,4.4981,4.4854,4.4854,4.4854,4.4854,0,4.4428,4.4479,4.4519,4.4571,4.4603,4.4656,4.4673,4.4704,4.4706,4.4721,4.4783,4.4813,4.486,4.4878,4.488,4.4951,4.4941,4.4927,4.4896,4.4957,4.4982,4.4993,4.4858,4.4857,4.4856,4.4856,0,0,4.452,4.4578,4.4592,4.4615,4.466,4.4698,4.4749,4.4796,4.4821,4.4857,4.4899,4.4962,4.4949,4.4975,4.4979,4.5012,4.5074,4.4993,4.4994,4.5005,4.5152,4.5161,4.5173,4.5069,4.5071,4.5073,4.5148,0,4.4599,4.4693,4.4704,4.4786,4.4831,4.4826,4.487,4.4901,4.4916,4.4955,4.4971,4.5014,4.4995,4.501,4.5042,4.5059,4.5103,4.5054,4.5105,4.5107,4.5095,4.5186,4.5197,4.5267,4.5158,4.516,4.5161,0,4.4704,4.4744,4.4831,4.4868,4.4887,4.4927,4.497,4.5008,4.5042,4.505,4.5079,4.5079,4.5129,4.5098,4.5166,4.5133,4.5154,4.5165,4.5168,4.5172,4.5137,4.5191,4.529,4.5299,4.5177,4.5176,4.5174,0,4.4759,4.4835,4.4896,4.4916,4.4961,4.4989,4.5009,4.5041,4.5068,4.5105,4.5122,4.5163,4.5186,4.5217,4.5226,4.5203,4.5293,4.5263,4.5299,4.5299,4.5318,4.5316,4.5419,4.5334,4.5334,4.5334,4.5334,0,4.4845,4.4898,4.4921,4.4959,4.5017,4.5028,4.5084,4.5103,4.5131,4.517,4.5168,4.5204,4.5216,4.5253,4.5261,4.5315,4.5326,4.5332,4.5333,4.5331,4.533,4.5344,4.5339,4.5337,4.5336,4.5336,4.5335,0,4.4917,4.4935,4.5001,4.5039,4.5049,4.509,4.5121,4.5156,4.517,4.5219,4.5231,4.5253,4.5297,4.531,4.5363,4.5368,4.543,4.5428,4.5419,4.5419,4.5453,4.5449,4.5568,4.5583,4.549,4.5491,4.5491,0,4.497,4.501,4.5052,4.5079,4.51,4.5143,4.5171,4.5182,4.5211,4.5252,4.5281,4.5324,4.536,4.543,4.5449,4.5488,4.5485,4.5524,4.5491,4.5487,4.5483,4.548,4.5483,4.553,4.5531,4.5532,4.5532,0,4.5061,4.5067,4.5108,4.5151,4.5184,4.5219,4.5252,4.5273,4.5289,4.532,4.5366,4.5394,4.5447,4.5489,4.5529,4.5547,4.5542,4.5543,4.5553,4.5551,4.5543,4.5546,4.5434,4.554,4.5539,4.5539,4.5538,4.5538,4.5123,4.5158,4.5193,4.5237,4.5263,4.5294,4.5328,4.5347,4.5386,4.5431,4.5435,4.5484,4.5514,4.5567,4.5587,4.5624,4.5612,4.5627,4.5631,4.5634,4.5636,4.5539,4.5631,4.5631,4.5631,4.5631,4.563,0,4.5212,4.5234,4.5275,4.5322,4.5356,4.535,4.5385,4.5414,4.5457,4.5487,4.5522,4.5573,4.5614,4.5636,4.5676,4.5701,4.5699,4.571,4.5708,4.5711,4.5645,4.5631,4.5711,4.5711,4.5711,4.5711,4.5711,4.5711,4.5262,4.5321,4.5331,4.5401,4.5422,4.5471,4.5491,4.5518,4.5542,4.56,4.5634,4.5649,4.5675,4.5717,4.5753,4.5758,4.5772,4.5785,4.5788,4.5725,4.5717,4.5709,4.5696,4.5788,4.5788,4.5852,4.5852,4.5853]}]]